Preview of NWS' New Version of Forecast
This preview is not operational and should not be used for support decisions.

Regional Weather Roundup (RWR)

Issued by Philadelphia/Mt Holly (PHI)

                            
000
ASUS41 KPHI 212212
RWRPHI

REGIONAL WEATHER ROUNDUP
NATIONAL WEATHER SERVICE MOUNT HOLLY NJ
500 PM EST THU FEB 21 2019

NOTE:  "FAIR" INDICATES FEW OR NO CLOUDS BELOW 12,000 FEET WITH NO
SIGNIFICANT WEATHER AND/OR OBSTRUCTIONS TO VISIBILITY.

 * = STATION DOES NOT REPORT PRECIPITATION (E.G. RAIN, SNOW, ETC.) 
        OR FOG.

NJZ015>026-212300-
SOUTHERN NEW JERSEY
  
CITY           SKY/WX    TMP DP  RH WIND       PRES   REMARKS
POMONA         FAIR      51  32  48 W16G24    30.02R                  
WILDWOOD*      FAIR      50  38  63 NW8       30.05S                  
MILLVILLE      FAIR      52  33  48 NW9       30.04R                  
WRIGHTSTOWN    FAIR      50  31  47 W13       29.98S                  
MOUNT HOLLY    FAIR      51  31  46 W9        30.02R                  
TRENTON        FAIR      52  32  46 W9        30.00S                  

$$
NJZ001>014-212300-
NORTHERN NEW JERSEY
  
CITY           SKY/WX    TMP DP  RH WIND       PRES   REMARKS
SUSSEX         FAIR      50  29  44 VRB5      29.97R                  
ANDOVER*         N/A     48  30  49 VRB5      29.96S                  
MORRISTOWN     PTCLDY    50  34  53 W8        29.97R                  
NEWARK         FAIR      50  32  50 W14       29.97R                  
TETERBORO      FAIR      51  30  44 N10G21    29.95R                  
CALDWELL       FAIR      51  29  42 NW10      29.97R                  
SOMERVILLE     FAIR      50  30  46 W6        29.97R                  
ALLAIRE*       FAIR      49  32  52 W10       30.00R                  
TOMS RIVER*    FAIR      50  32  50 W13G21    30.01R                  

$$
PAZ043-044-047-054-055-060>062-066>071-212300-
EASTERN PENNSYLVANIA
  
CITY           SKY/WX    TMP DP  RH WIND       PRES   REMARKS
PHILADELPHIA   MOCLDY    51  28  41 W13G22    30.04R                  
NORTH PHILA    FAIR      52  29  41 NW10G23   30.03S                  
BLUE BELL*     FAIR      46  30  53 W8        30.03S                  
DOYLESTOWN     FAIR      49  31  49 NW10      30.00R                  
QUAKERTOWN*    CLEAR     48  32  53 W5        30.01                   
PERKASIE*      FAIR      46  32  57 W8G16     30.02R                  
POTTSTOWN      FAIR      47  30  51 W7        30.03R                  
LANCASTER      FAIR      47  35  63 W6        30.03R                  
COATESVILLE    FAIR      45  34  65 W5        30.04R                  
READING        FAIR      48  33  56 W6        30.01S                  
ALLENTOWN      FAIR      50  27  40 W9        30.01R                  
MOUNT POCONO   FAIR      41  29  62 W10       29.95R                  
HAZLETON       FAIR      43  27  52 W6        30.01S                  
LEHIGHTON      FAIR      48  27  43 W7        30.01S                  
WILKES BARRE   FAIR      46  31  55 SW10      29.98R                  

$$
DEZALL-MDZ008-012-015-019-020-212300-
DELAWARE AND EASTERN MARYLAND
  
CITY           SKY/WX    TMP DP  RH WIND       PRES   REMARKS
WILMINGTON     FAIR      52  32  46 NW9       30.05S                  
DOVER          FAIR      55  33  43 W9G18     30.04R                  
GEORGETOWN     FAIR      60  30  32 NW8G18    30.05R                  
EASTON         PTCLDY    55  37  50 NW5       30.09R                  
ABERDEEN       MOCLDY    52  32  46 W12       30.06                   
PATUXENT       MOCLDY    50  43  77 CALM      30.06                   
OCEAN CITY     FAIR      46  42  86 VRB3      30.06R                  
WALLOPS ISLAND FAIR      52  44  74 NW5       30.07R                  
CAMBRIDGE      CLEAR     54  41  62 CALM      30.07R                  
SALISBURY      FAIR      56  43  61 N6        30.05R                  

$$
PAZ001-021-NYZ056-072-MDZ011-DCZ001-212300-
OTHER NEARBY LOCATIONS
  
CITY           SKY/WX    TMP DP  RH WIND       PRES   REMARKS
HARRISBURG     FAIR      48  25  40 W13       30.04R                  
STATE COLLEGE  CLEAR     45  23  42 W14       30.06R                  
WILLIAMSPORT   FAIR      48  22  35 W13       30.02R                  
BINGHAMTON     FAIR      39  24  55 NW8       29.96S WCI  33          
NEW YORK CITY  FAIR      51  31  46 MISG      29.98R                  
BALTIMORE      MOCLDY    54  31  41 W12       30.05R                  
WASHINGTON DC  MOCLDY    59  31  34 VRB5      30.07R                  

$$